Weather observations for the past three days for
Auburn Municipal Airport
| Date | Time (pdt) | Wind (kph) | Vis. (km) | Weather | Sky Cond. | Temperature (ºC) | Relative Humidity | Wind Chill (°C) | Heat Index (°C) | Pressure | Precipitation (cm) | ||||||
|---|---|---|---|---|---|---|---|---|---|---|---|---|---|---|---|---|---|
| Air | Dwpt | 6 hour | altimeter (cm) | sea level (mb) | 1 hr | 3 hr | 6 hr | ||||||||||
| Max. | Min. | ||||||||||||||||
| 06 | 14:15 | Calm | 16.09 | Overcast | OVC020 | 17 | 13 | 77% | 76.5 | 0.0 | |||||||
| 06 | 13:55 | Vrbl 7 | 16.09 | Overcast | OVC019 | 16 | 13 | 83% | 76.53 | 0.0 | |||||||
| 06 | 13:35 | NW 7 | 16.09 | Overcast | OVC019 | 16 | 13 | 83% | 76.53 | 0.0 | |||||||
| 06 | 13:15 | W 13 | 14.48 | Overcast | OVC017 | 16 | 14 | 88% | 76.56 | 0.0 | |||||||
| 06 | 12:55 | W 7 | 16.09 | Overcast | BKN018 OVC022 | 16 | 13 | 83% | 76.56 | 0.0 | |||||||
| 06 | 12:35 | Vrbl 7 | 16.09 | Overcast | SCT016 OVC022 | 16 | 14 | 88% | 76.56 | 0.0 | |||||||
| 06 | 12:15 | W 7 | 16.09 | Overcast | OVC016 | 16 | 13 | 83% | 76.58 | 0.0 | |||||||
| 06 | 11:55 | NW 9 | 16.09 | Overcast | BKN016 OVC022 | 15 | 13 | 88% | 76.58 | 0.0 | |||||||
| 06 | 11:35 | W 7 | 16.09 | Overcast | OVC022 | 16 | 13 | 83% | 76.58 | 0.0 | |||||||
| 06 | 11:15 | Calm | 16.09 | Overcast | SCT016 OVC022 | 15 | 13 | 88% | 76.58 | 0.0 | |||||||
| 06 | 10:55 | Calm | 16.09 | Overcast | BKN018 OVC023 | 15 | 13 | 88% | 76.58 | 0.0 | |||||||
| 06 | 10:35 | Calm | 16.09 | Overcast | SCT015 OVC023 | 15 | 13 | 88% | 76.58 | 0.0 | |||||||
| 06 | 10:15 | Calm | 16.09 | Overcast | SCT016 OVC025 | 15 | 13 | 88% | 76.58 | 0.0 | |||||||
| 06 | 09:55 | W 7 | 14.48 | Overcast | OVC025 | 15 | 13 | 88% | 76.58 | 0.0 | |||||||
| 06 | 09:35 | W 7 | 16.09 | Overcast | OVC025 | 15 | 13 | 88% | 76.58 | 0.0 | |||||||
| 06 | 09:15 | Calm | 14.48 | Overcast | OVC026 | 14 | 13 | 94% | 76.56 | 0.0 | |||||||
| 06 | 08:55 | Calm | 16.09 | Overcast | OVC026 | 14 | 13 | 94% | 76.56 | 0.0 | |||||||
| 06 | 08:35 | Calm | 16.09 | Overcast | OVC028 | 14 | 13 | 94% | 76.56 | 0.0 | |||||||
| 06 | 08:15 | Calm | 16.09 | Overcast | OVC028 | 14 | 13 | 94% | 76.56 | 0.0 | |||||||
| 06 | 07:55 | Calm | 14.48 | Overcast | OVC029 | 14 | 13 | 94% | 76.56 | 0.0 | |||||||
| 06 | 07:35 | Calm | 16.09 | Overcast | OVC029 | 13 | 13 | 100% | 76.56 | 0.0 | |||||||
| 06 | 07:15 | Calm | 16.09 | Overcast | OVC029 | 13 | 13 | 100% | 76.53 | 0.0 | |||||||
| 06 | 06:55 | Calm | 16.09 | Overcast | OVC030 | 13 | 12 | 94% | 76.53 | 0.0 | |||||||
| 06 | 06:35 | Calm | 16.09 | Overcast | OVC031 | 13 | 12 | 94% | 76.5 | 0.0 | |||||||
| 06 | 06:15 | E 6 | 16.09 | Overcast | OVC032 | 12 | 12 | 100% | 76.5 | 0.0 | |||||||
| 06 | 05:35 | Calm | 16.09 | Overcast | OVC033 | 12 | 12 | 100% | 76.5 | 0.0 | |||||||
| 06 | 05:15 | Calm | 16.09 | Overcast | OVC034 | 12 | 12 | 100% | 76.48 | 0.0 | |||||||
| 06 | 04:35 | Calm | 16.09 | Overcast | OVC035 | 12 | 12 | 100% | 76.48 | 0.0 | |||||||
| 06 | 04:15 | Calm | 16.09 | Overcast | OVC035 | 12 | 12 | 100% | 76.45 | 0.0 | |||||||
| 06 | 03:55 | Calm | 16.09 | Overcast | OVC036 | 12 | 12 | 100% | 76.45 | 0.0 | |||||||
| 06 | 03:30 | Calm | 16.09 | Overcast | OVC037 | 12 | 12 | 100% | 76.45 | 0.0 | |||||||
| 06 | 03:15 | Calm | 16.09 | Overcast | OVC037 | 12 | 12 | 100% | 76.43 | 0.0 | |||||||
| 06 | 02:55 | Calm | 16.09 | Overcast | OVC037 | 12 | 12 | 100% | 76.43 | 0.0 | |||||||
| 06 | 02:35 | Calm | 16.09 | Overcast | OVC038 | 12 | 12 | 100% | 76.43 | 0.0 | |||||||
| 06 | 02:15 | E 6 | 16.09 | Overcast | OVC038 | 12 | 12 | 100% | 76.43 | 0.0 | |||||||
| 06 | 01:55 | Calm | 16.09 | Overcast | FEW019 OVC038 | 13 | 12 | 94% | 76.43 | 0.0 | |||||||
| 06 | 01:35 | Calm | 16.09 | Overcast | FEW012 BKN018 OVC039 | 13 | 12 | 94% | 76.43 | 0.0 | |||||||
| 06 | 01:15 | Calm | 16.09 | Overcast | BKN012 BKN017 OVC021 | 13 | 12 | 94% | 76.43 | 0.0 | |||||||
| 06 | 00:55 | Calm | 16.09 | Overcast | OVC013 | 13 | 12 | 94% | 76.43 | 0.0 | |||||||
| 06 | 00:35 | Calm | 16.09 | Overcast | BKN013 OVC040 | 12 | 12 | 100% | 76.43 | 0.0 | |||||||
| 06 | 00:15 | Calm | 16.09 | Overcast | OVC040 | 12 | 12 | 100% | 76.4 | 0.0 | |||||||
| 05 | 23:55 | Calm | 16.09 | Overcast | SCT025 OVC040 | 13 | 12 | 94% | 76.4 | 0.0 | |||||||
| 05 | 23:35 | Calm | 16.09 | Overcast | FEW017 OVC025 | 13 | 12 | 94% | 76.38 | 0.0 | |||||||
| 05 | 23:15 | Calm | 16.09 | Overcast | FEW017 OVC023 | 13 | 12 | 94% | 76.38 | 0.0 | |||||||
| 05 | 22:55 | Calm | 16.09 | Overcast | SCT017 BKN023 OVC038 | 13 | 12 | 94% | 76.35 | 0.0 | |||||||
| 05 | 22:35 | Calm | 16.09 | Overcast | FEW017 FEW021 OVC037 | 13 | 12 | 94% | 76.35 | 0.0 | |||||||
| 05 | 22:15 | Calm | 16.09 | Overcast | OVC037 | 13 | 12 | 94% | 76.33 | 0.0 | |||||||
| 05 | 21:55 | SE 6 | 16.09 | Overcast | OVC037 | 13 | 12 | 94% | 76.33 | 0.0 | |||||||
| 05 | 21:35 | Calm | 16.09 | Overcast | OVC038 | 13 | 12 | 94% | 76.3 | 0.0 | |||||||
| 05 | 21:15 | SE 6 | 16.09 | Overcast | OVC038 | 13 | 12 | 94% | 76.3 | 0.0 | |||||||
| 05 | 20:55 | SE 6 | 16.09 | Overcast | OVC037 | 13 | 12 | 94% | 76.28 | 0.0 | |||||||
| 05 | 20:35 | SE 9 | 16.09 | Overcast | OVC038 | 13 | 12 | 94% | 76.25 | 0.0 | |||||||
| 05 | 20:15 | Calm | 16.09 | Overcast | OVC037 | 13 | 12 | 94% | 76.25 | 0.0 | |||||||
| 05 | 19:55 | SE 6 | 16.09 | Overcast | OVC037 | 14 | 11 | 82% | 76.23 | 0.0 | |||||||
| 05 | 19:35 | S 7 | 16.09 | Overcast | OVC037 | 14 | 11 | 82% | 76.2 | 0.0 | |||||||
| 05 | 19:15 | SE 7 | 16.09 | Overcast | FEW017 OVC037 | 14 | 12 | 88% | 76.2 | 0.0 | |||||||
| 05 | 18:55 | S 7 | 16.09 | Overcast | SCT017 OVC037 | 14 | 12 | 88% | 76.17 | 0.0 | |||||||
| 05 | 18:35 | SE 11 | 16.09 | Overcast | OVC038 | 14 | 11 | 82% | 76.17 | 0.0 | |||||||
| 05 | 18:15 | SE 9 | 16.09 | Overcast | OVC039 | 15 | 12 | 82% | 76.17 | 0.0 | |||||||
| 05 | 17:55 | E 7 | 16.09 | Overcast | FEW031 OVC037 | 15 | 12 | 82% | 76.17 | 0.0 | |||||||
| 05 | 17:35 | E 7 | 16.09 | Overcast | FEW019 SCT025 OVC037 | 15 | 12 | 82% | 76.17 | 0.0 | |||||||
| 05 | 17:15 | Calm | 14.48 | Overcast | BKN020 OVC028 | 14 | 11 | 82% | 76.17 | 0.0 | |||||||
| 05 | 16:55 | Calm | 16.09 | Overcast | BKN020 OVC028 | 14 | 11 | 82% | 76.15 | 0.0 | |||||||
| 05 | 16:35 | Calm | 16.09 | Overcast | BKN020 OVC028 | 14 | 11 | 82% | 76.15 | 0.0 | |||||||
| 05 | 16:15 | Vrbl 7 | 16.09 | Overcast | OVC021 | 14 | 11 | 82% | 76.15 | 0.0 | |||||||
| 05 | 15:55 | SW 6 | 16.09 | Overcast | BKN019 OVC024 | 14 | 11 | 82% | 76.17 | 0.0 | |||||||
| 05 | 15:35 | W 9 | 16.09 | Overcast | BKN019 BKN026 OVC032 | 14 | 11 | 82% | 76.17 | 0.0 | |||||||
| 05 | 15:15 | Vrbl 9 | 16.09 | Overcast | BKN019 BKN026 OVC032 | 14 | 12 | 88% | 76.17 | 0.0 | |||||||
| 05 | 14:55 | W 11 | 16.09 | Overcast | SCT018 BKN026 OVC032 | 14 | 12 | 88% | 76.17 | 0.0 | |||||||
| 05 | 14:35 | W 11 | 16.09 | Overcast | FEW016 OVC025 | 14 | 11 | 82% | 76.2 | 0.0 | |||||||
| 05 | 14:15 | W 7 | 16.09 | Overcast | SCT017 OVC026 | 14 | 11 | 82% | 76.2 | 0.0 | |||||||
| 05 | 13:55 | SW 9 | 16.09 | Overcast | SCT016 OVC026 | 14 | 11 | 82% | 76.17 | 0.0 | |||||||
| 05 | 13:35 | Calm | 16.09 | Overcast | FEW014 OVC023 | 13 | 11 | 88% | 76.17 | 0.0 | |||||||
| 05 | 13:15 | W 7 | 16.09 | Overcast | BKN016 OVC021 | 13 | 11 | 88% | 76.17 | 0.0 | |||||||
| 05 | 12:55 | Vrbl 11 | 16.09 | Overcast | OVC016 | 13 | 11 | 88% | 76.17 | 0.0 | |||||||
| 05 | 12:35 | SW 7 | 16.09 | Overcast | OVC017 | 13 | 11 | 88% | 76.2 | 0.0 | |||||||
| 05 | 12:15 | SW 6 | 16.09 | Overcast | BKN018 BKN031 OVC038 | 14 | 11 | 82% | 76.17 | 0.0 | |||||||
| 05 | 11:55 | SW 9 | 16.09 | Overcast | BKN018 BKN025 OVC036 | 13 | 11 | 88% | 76.17 | 0.0 | |||||||
| 05 | 11:35 | Calm | 16.09 | Overcast | BKN018 OVC023 | 13 | 10 | 82% | 76.17 | 0.0 | |||||||
| 05 | 11:15 | Calm | 14.48 | Mostly Cloudy | BKN021 BKN030 | 13 | 10 | 82% | 76.17 | 0.0 | |||||||
| 05 | 10:55 | Vrbl 7 | 16.09 | Mostly Cloudy | FEW015 SCT029 BKN044 | 14 | 11 | 82% | 76.15 | 0.0 | |||||||
| 05 | 10:35 | Calm | 16.09 | Overcast | FEW015 OVC044 | 13 | 10 | 82% | 76.15 | 0.0 | |||||||
| 05 | 10:15 | SW 7 | 16.09 | Overcast | SCT015 SCT027 OVC044 | 12 | 11 | 94% | 76.15 | 0.0 | |||||||
| 05 | 09:55 | Calm | 12.87 | Overcast | BKN009 BKN013 OVC045 | 12 | 11 | 94% | 76.15 | 0.0 | |||||||
| 05 | 09:35 | S 6 | 16.09 | Overcast | OVC009 | 11 | 11 | 100% | 76.15 | 0.0 | |||||||
| 05 | 09:15 | Vrbl 6 | 16.09 | Overcast | BKN008 OVC027 | 11 | 10 | 94% | 76.15 | 0.0 | |||||||
| 05 | 08:55 | S 6 | 16.09 | Overcast | FEW008 OVC025 | 10 | 10 | 100% | 76.15 | 0.0 | 0.03 | ||||||
| 05 | 08:35 | Calm | 16.09 | Overcast | FEW007 OVC024 | 10 | 10 | 100% | 76.15 | 0.0 | |||||||
| 05 | 08:15 | SE 6 | 16.09 | Overcast | OVC025 | 10 | 10 | 100% | 76.12 | 0.0 | |||||||
| 05 | 07:55 | SE 7 | 16.09 | Overcast | FEW007 OVC026 | 10 | 10 | 100% | 9 | 76.1 | 0.0 | ||||||
| 05 | 07:35 | S 7 | 16.09 | Overcast | FEW006 OVC025 | 10 | 10 | 100% | 9 | 76.1 | 0.0 | ||||||
| 05 | 07:15 | SE 6 | 16.09 | Overcast | OVC026 | 10 | 10 | 100% | 76.07 | 0.0 | |||||||
| 05 | 06:55 | SE 7 | 16.09 | Overcast | OVC026 | 10 | 10 | 100% | 9 | 76.07 | 0.0 | ||||||
| 05 | 06:15 | SE 6 | 16.09 | Overcast | OVC026 | 10 | 10 | 100% | 76.05 | 0.0 | |||||||
| 05 | 05:55 | SE 6 | 16.09 | Overcast | BKN026 OVC033 | 10 | 10 | 100% | 76.07 | 0.0 | |||||||
| 05 | 05:35 | SE 7 | 16.09 | Overcast | FEW027 OVC033 | 10 | 10 | 100% | 9 | 76.05 | 0.0 | ||||||
| 05 | 05:15 | SE 9 | 16.09 | Overcast | BKN029 OVC033 | 10 | 10 | 100% | 9 | 76.05 | 0.0 | ||||||
| 05 | 04:55 | E 7 | 16.09 | Overcast | OVC030 | 10 | 10 | 100% | 9 | 76.05 | 0.0 | ||||||
| 05 | 04:35 | SE 7 | 16.09 | Overcast | FEW022 BKN031 OVC037 | 10 | 10 | 100% | 9 | 76.05 | 0.0 | ||||||
| 05 | 04:15 | Calm | 16.09 | Overcast | OVC037 | 10 | 10 | 100% | 76.07 | 0.0 | |||||||
| 05 | 03:55 | E 7 | 16.09 | Overcast | OVC038 | 10 | 10 | 100% | 9 | 76.05 | 0.0 | ||||||
| 05 | 03:35 | SE 11 | 16.09 | Overcast | OVC038 | 10 | 10 | 100% | 9 | 76.05 | 0.0 | ||||||
| 05 | 02:55 | E 13 | 16.09 | Overcast | OVC040 | 10 | 10 | 100% | 8 | 76.07 | 0.0 | ||||||
| 05 | 02:35 | E 11 | 16.09 | Overcast | OVC040 | 10 | 10 | 100% | 9 | 76.07 | 0.0 | ||||||
| 05 | 02:15 | SE 9 | 16.09 | Overcast | OVC040 | 10 | 10 | 100% | 9 | 76.1 | 0.0 | ||||||
| 05 | 01:55 | E 11 | 16.09 | Overcast | OVC039 | 10 | 10 | 100% | 9 | 76.1 | 0.0 | ||||||
| 05 | 01:35 | SE 9 | 16.09 | Overcast | FEW015 BKN022 OVC039 | 10 | 10 | 100% | 9 | 76.12 | 0.0 | ||||||
| 05 | 01:15 | E 11 | 16.09 | Overcast | BKN022 BKN027 OVC037 | 10 | 10 | 100% | 9 | 76.12 | 0.0 | ||||||
| 05 | 00:55 | SE 9 | 16.09 | Overcast | FEW021 SCT026 OVC038 | 10 | 10 | 100% | 9 | 76.12 | 0.0 | ||||||
| 05 | 00:35 | E 7 | 16.09 | Overcast | FEW014 SCT026 OVC038 | 10 | 10 | 100% | 9 | 76.12 | 0.0 | ||||||
| 05 | 00:15 | SE 9 | 8.05 | Fog/Mist | FEW014 FEW018 OVC038 | 10 | 10 | 100% | 9 | 76.12 | 0.0 | ||||||
| 04 | 23:55 | E 9 | 12.87 | Overcast | SCT018 SCT026 OVC041 | 9 | 9 | 100% | 8 | 76.12 | 0.0 | ||||||
| 04 | 23:35 | SE 6 | 9.66 | Fog/Mist | SCT016 SCT021 OVC045 | 9 | 9 | 100% | 76.12 | 0.0 | |||||||
| 04 | 23:15 | E 6 | 11.27 | Overcast | FEW017 SCT028 OVC045 | 9 | 9 | 100% | 76.15 | 0.0 | |||||||
| 04 | 22:55 | E 7 | 6.44 | Fog/Mist | SCT027 BKN037 OVC046 | 9 | 9 | 100% | 8 | 76.12 | 0.0 | ||||||
| 04 | 22:35 | Calm | 8.05 | Fog/Mist | SCT027 BKN036 OVC041 | 9 | 9 | 100% | 76.12 | 0.0 | |||||||
| 04 | 22:15 | E 7 | 8.05 | Fog/Mist | BKN044 OVC050 | 9 | 9 | 100% | 8 | 76.15 | 0.0 | ||||||
| 04 | 21:55 | E 11 | 8.05 | Fog/Mist | SCT044 BKN050 OVC075 | 9 | 9 | 100% | 8 | 76.15 | 0.0 | ||||||
| 04 | 21:35 | E 11 | 9.66 | Fog/Mist | FEW025 BKN050 OVC075 | 9 | 9 | 100% | 8 | 76.15 | 0.0 | ||||||
| 04 | 21:15 | E 9 | 4.83 | Fog/Mist | SCT026 BKN036 OVC070 | 9 | 9 | 100% | 8 | 76.15 | 0.0 | ||||||
| 04 | 20:55 | SE 6 | 4.02 | Fog/Mist | SCT026 OVC035 | 9 | 9 | 100% | 76.12 | 0.0 | |||||||
| 04 | 20:35 | Calm | 4.83 | Fog/Mist | SCT034 BKN040 OVC065 | 9 | 9 | 100% | 76.15 | 0.0 | |||||||
| 04 | 20:15 | NE 7 | 4.02 | Fog/Mist | BKN034 BKN040 OVC065 | 9 | 9 | 100% | 8 | 76.17 | 0.0 | ||||||
| 04 | 19:55 | E 7 | 4.83 | Fog/Mist | OVC032 | 9 | 9 | 100% | 8 | 76.17 | 0.0 | ||||||
| 04 | 19:35 | NE 11 | 4.02 | Fog/Mist | BKN030 OVC036 | 10 | 10 | 100% | 9 | 76.17 | 0.0 | ||||||
| 04 | 19:15 | E 13 | 4.83 | Fog/Mist | BKN029 BKN035 OVC041 | 10 | 10 | 100% | 8 | 76.15 | 0.0 | ||||||
| 04 | 18:55 | SE 13 | 2.82 | Fog/Mist | BKN027 OVC038 | 10 | 10 | 100% | 8 | 76.07 | 0.0 | ||||||
| 04 | 18:35 | E 13 | 6.44 | Fog/Mist | OVC027 | 10 | 10 | 100% | 8 | 76.12 | 0.0 | ||||||
| 04 | 18:15 | E 13 | 4.83 | Fog/Mist | BKN027 BKN032 BKN060 | 10 | 10 | 100% | 8 | 76.12 | 0.0 | ||||||
| 04 | 17:55 | Vrbl 7 | 4.83 | Fog/Mist | FEW027 FEW032 SCT055 | 10 | 10 | 100% | 9 | 76.12 | 0.0 | ||||||
| 04 | 17:15 | SE 13 | 4.83 | Fog/Mist | SCT027 BKN040 OVC065 | 10 | 10 | 100% | 8 | 76.15 | 0.0 | ||||||
| 04 | 16:55 | SE 11 G 20 | 4.83 | Fog/Mist | OVC028 | 10 | 10 | 100% | 9 | 76.15 | 0.0 | ||||||
| 04 | 16:35 | SE 13 | 4.83 | Fog/Mist | BKN030 | 11 | 11 | 100% | 76.15 | 0.0 | |||||||
| 04 | 16:15 | S 7 | 2.41 | Fog/Mist | SCT004 BKN026 OVC031 | 10 | 10 | 100% | 9 | 76.1 | 0.0 | ||||||
| 04 | 15:55 | SE 13 | 6.44 | Fog/Mist | SCT006 OVC030 | 10 | 10 | 100% | 8 | 76.2 | 0.0 | ||||||
| 04 | 15:35 | S 9 | 3.22 | Fog/Mist | SCT007 OVC030 | 10 | 10 | 100% | 9 | 76.15 | 0.0 | ||||||
| 04 | 15:15 | S 6 | 4.83 | Fog/Mist | SCT005 OVC030 | 10 | 10 | 100% | 76.17 | 0.0 | |||||||
| 04 | 14:55 | S 7 | 4.83 | Fog/Mist | BKN005 BKN011 BKN032 | 11 | 11 | 100% | 76.17 | 0.0 | |||||||
| 04 | 14:15 | SE 7 | 4.83 | Fog/Mist | BKN006 BKN010 OVC017 | 11 | 11 | 100% | 76.2 | 0.0 | |||||||
| 04 | 13:55 | S 7 | 6.44 | Fog/Mist | SCT008 SCT013 BKN031 | 11 | 11 | 100% | 76.17 | 0.0 | |||||||
| 04 | 13:35 | Calm | 6.44 | Fog/Mist | FEW013 BKN031 | 11 | 10 | 94% | 76.15 | 0.0 | |||||||
| 04 | 13:15 | Calm | 8.05 | Fog/Mist | BKN032 | 11 | 10 | 94% | 76.15 | 0.0 | |||||||
| 04 | 12:55 | SE 7 | 14.48 | Overcast | OVC032 | 11 | 9 | 88% | 76.17 | 0.0 | |||||||
| 04 | 12:35 | Vrbl 7 | 14.48 | Mostly Cloudy | BKN033 BKN070 | 12 | 9 | 82% | 76.17 | 0.0 | |||||||
| 04 | 11:55 | S 11 | 16.09 | Mostly Cloudy | SCT017 BKN033 BKN070 | 12 | 9 | 82% | 76.17 | 0.0 | |||||||
| 04 | 11:35 | S 11 | 11.27 | Mostly Cloudy | SCT015 SCT034 BKN050 | 12 | 10 | 88% | 76.17 | 0.0 | |||||||
| 04 | 11:15 | S 11 | 14.48 | Mostly Cloudy | BKN050 | 12 | 10 | 88% | 76.17 | 0.0 | |||||||
| 04 | 10:55 | SE 9 | 16.09 | Mostly Cloudy | FEW034 BKN055 BKN080 | 12 | 9 | 82% | 76.15 | 0.0 | |||||||
| 04 | 10:35 | S 13 | 16.09 | Overcast | BKN033 OVC050 | 12 | 9 | 82% | 76.15 | 0.0 | |||||||
| 04 | 10:15 | S 11 | 16.09 | Overcast | OVC033 | 12 | 9 | 82% | 76.15 | 0.0 | |||||||
| 04 | 09:35 | SE 13 | 16.09 | Overcast | OVC032 | 11 | 9 | 88% | 76.12 | 0.0 | |||||||
| 04 | 09:15 | SE 13 | 16.09 | Overcast | OVC034 | 11 | 9 | 88% | 76.15 | 0.0 | |||||||
| 04 | 08:55 | SE 17 | 16.09 | Overcast | BKN033 OVC044 | 11 | 9 | 88% | 76.12 | 0.0 | |||||||
| 04 | 08:35 | SE 11 | 16.09 | Overcast | BKN031 OVC044 | 11 | 9 | 88% | 76.1 | 0.0 | |||||||
| 04 | 08:15 | SE 11 | 16.09 | Overcast | OVC032 | 11 | 9 | 88% | 76.1 | 0.0 | |||||||
| 04 | 07:55 | SE 15 | 16.09 | Overcast | OVC031 | 11 | 9 | 88% | 76.1 | 0.0 | |||||||
| 04 | 07:35 | SE 11 | 16.09 | Overcast | OVC031 | 11 | 9 | 88% | 76.07 | 0.0 | |||||||
| 04 | 07:15 | SE 11 | 16.09 | Overcast | OVC031 | 10 | 9 | 94% | 9 | 76.1 | 0.0 | ||||||
| 04 | 06:55 | SE 13 | 16.09 | Overcast | OVC034 | 10 | 9 | 94% | 8 | 76.1 | 0.0 | ||||||
| 04 | 06:35 | SE 9 | 16.09 | Overcast | OVC033 | 10 | 9 | 94% | 9 | 76.1 | 0.0 | ||||||
| 04 | 06:15 | SE 9 | 16.09 | Overcast | OVC032 | 10 | 9 | 94% | 9 | 76.05 | 0.0 | ||||||
| 04 | 05:55 | SE 7 | 16.09 | Overcast | OVC031 | 10 | 9 | 94% | 9 | 76.05 | 0.0 | ||||||
| 04 | 05:35 | SE 9 | 16.09 | Overcast | OVC031 | 10 | 9 | 94% | 9 | 76.02 | 0.0 | ||||||
| 04 | 05:15 | SE 11 | 16.09 | Overcast | SCT031 OVC070 | 10 | 9 | 94% | 9 | 76.05 | 0.0 | ||||||
| 04 | 04:55 | SE 11 | 16.09 | Mostly Cloudy | BKN070 | 10 | 9 | 94% | 9 | 76.05 | 0.0 | ||||||
| 04 | 04:35 | S 7 | 16.09 | Overcast | SCT027 OVC070 | 10 | 9 | 94% | 9 | 76.05 | 0.0 | ||||||
| 04 | 04:15 | SE 6 | 16.09 | Overcast | OVC027 | 10 | 9 | 94% | 76.05 | 0.0 | |||||||
| 04 | 03:55 | SE 6 | 16.09 | Overcast | OVC027 | 10 | 9 | 94% | 76.05 | 0.0 | |||||||
| 04 | 03:35 | Calm | 16.09 | Overcast | OVC026 | 10 | 9 | 94% | 76.05 | 0.0 | |||||||
| 04 | 03:15 | SE 7 | 16.09 | Overcast | OVC025 | 10 | 9 | 94% | 9 | 76.05 | 0.0 | ||||||
| 04 | 02:55 | SE 6 | 16.09 | Overcast | OVC024 | 11 | 9 | 88% | 76.05 | 0.0 | |||||||
| 04 | 02:35 | Calm | 16.09 | Overcast | OVC024 | 11 | 9 | 88% | 76.07 | 0.0 | |||||||
| 04 | 02:15 | SE 9 | 16.09 | Mostly Cloudy | BKN024 | 11 | 9 | 88% | 76.07 | 0.0 | |||||||
| 04 | 01:55 | E 6 | 16.09 | A Few Clouds | FEW024 | 10 | 9 | 94% | 76.05 | 0.0 | |||||||
| 04 | 01:35 | SE 9 | 16.09 | Fair | CLR | 11 | 9 | 88% | 76.07 | 0.0 | |||||||
| 04 | 01:15 | SE 7 | 16.09 | Fair | CLR | 11 | 9 | 88% | 76.07 | 0.0 | |||||||
| 04 | 00:55 | SE 11 | 16.09 | Fair | CLR | 11 | 9 | 88% | 76.07 | 0.0 | |||||||
| 04 | 00:35 | SE 9 | 16.09 | Fair | CLR | 11 | 9 | 88% | 76.07 | 0.0 | |||||||
| 04 | 00:15 | SE 9 | 16.09 | Fair | CLR | 11 | 9 | 88% | 76.07 | 0.0 | |||||||
| 03 | 23:55 | SE 9 | 16.09 | Fair | CLR | 12 | 9 | 82% | 76.07 | 0.0 | |||||||
| 03 | 23:35 | S 7 | 16.09 | Partly Cloudy | SCT047 | 12 | 9 | 82% | 76.07 | 0.0 | |||||||
| 03 | 23:15 | SE 6 | 16.09 | Overcast | OVC046 | 12 | 9 | 82% | 76.07 | 0.0 | |||||||
| 03 | 22:55 | SE 6 | 16.09 | Overcast | OVC045 | 13 | 10 | 82% | 76.07 | 0.0 | |||||||
| 03 | 22:35 | S 7 | 16.09 | Mostly Cloudy | FEW034 BKN045 | 13 | 9 | 77% | 76.07 | 0.0 | |||||||
| 03 | 22:15 | S 7 | 16.09 | Mostly Cloudy | FEW032 BKN044 | 13 | 9 | 77% | 76.05 | 0.0 | |||||||
| 03 | 21:55 | Calm | 16.09 | Overcast | SCT032 OVC043 | 13 | 9 | 77% | 76.02 | 0.0 | |||||||
| 03 | 21:35 | S 9 | 16.09 | Overcast | SCT033 OVC042 | 13 | 9 | 77% | 76.02 | 0.0 | |||||||
| 03 | 21:15 | S 9 | 16.09 | Overcast | SCT033 OVC041 | 14 | 9 | 72% | 76.02 | 0.0 | |||||||
| 03 | 20:55 | S 11 | 16.09 | Overcast | BKN032 OVC039 | 14 | 9 | 72% | 76 | 0.0 | |||||||
| 03 | 20:35 | S 11 | 16.09 | Overcast | OVC031 | 15 | 9 | 68% | 75.97 | 0.0 | |||||||
| 03 | 20:15 | S 11 | 16.09 | Overcast | OVC031 | 15 | 10 | 72% | 75.95 | 0.0 | |||||||
| 03 | 19:55 | S 7 | 16.09 | Overcast | OVC030 | 15 | 10 | 72% | 75.95 | 0.0 | |||||||
| 03 | 19:35 | Calm | 16.09 | Overcast | OVC029 | 15 | 10 | 72% | 75.92 | 0.0 | |||||||
| 03 | 19:15 | Vrbl 7 | 16.09 | Overcast | BKN028 OVC037 | 15 | 10 | 72% | 75.92 | 0.0 | |||||||
| 03 | 18:55 | Vrbl 6 | 16.09 | Overcast | OVC037 | 15 | 10 | 72% | 75.92 | 0.0 | |||||||
| 03 | 18:35 | S 9 | 16.09 | Mostly Cloudy | BKN036 | 15 | 10 | 72% | 75.92 | 0.0 | |||||||
| 03 | 18:15 | Vrbl 9 | 16.09 | Partly Cloudy | SCT025 | 15 | 10 | 72% | 75.92 | 0.0 | |||||||
| 03 | 17:55 | SW 11 | 16.09 | Mostly Cloudy | BKN024 | 16 | 10 | 68% | 75.92 | 0.0 | |||||||
| 03 | 17:35 | SW 13 | 16.09 | Mostly Cloudy | BKN024 | 15 | 10 | 72% | 75.92 | 0.0 | |||||||
| 03 | 17:15 | SW 7 | 16.09 | A Few Clouds | FEW024 | 15 | 11 | 77% | 75.9 | 0.0 | |||||||
| 03 | 16:55 | SW 9 | 16.09 | A Few Clouds | FEW024 | 15 | 10 | 72% | 75.92 | 0.0 | |||||||
| 03 | 16:35 | SW 9 | 16.09 | A Few Clouds | FEW120 | 15 | 10 | 72% | 75.92 | 0.0 | |||||||
| 03 | 16:15 | SE 7 | 16.09 | Partly Cloudy | SCT120 | 15 | 10 | 72% | 75.95 | 0.0 | |||||||
| 03 | 15:35 | S 6 | 16.09 | A Few Clouds | FEW022 | 15 | 10 | 72% | 75.95 | 0.0 | |||||||
| 03 | 15:15 | S 13 | 16.09 | Partly Cloudy | SCT022 | 14 | 10 | 77% | 75.95 | 0.0 | |||||||
| 03 | 14:55 | S 15 | 16.09 | Mostly Cloudy | SCT022 BKN110 | 14 | 10 | 77% | 75.97 | 0.0 | |||||||
| 03 | 14:35 | S 15 | 16.09 | A Few Clouds | FEW023 FEW110 | 14 | 10 | 77% | 75.95 | 0.0 | |||||||
| Date | Time (pdt) | Wind (kph) | Vis. (km) | Weather | Sky Cond. | Air | Dwpt | Max. | Min. | Relative Humidity | Wind Chill (°C) | Heat Index (°C) | altimeter (cm) | sea level (mb) | 1 hr | 3 hr | 6 hr |
| 6 hour | |||||||||||||||||
| Temperature (ºC) | Pressure | Precipitation (cm) | |||||||||||||||